When you browse on this site, cookies collect data to enhance your experience and personalize the content and advertising you see.
Visit our Privacy Policy to learn more. By continuing to use the site, you agree to this use of cookies and data.
  • In Lithuania
  • List of Countries
  • For 7 days
  • Water Temperature
  • Satellite Maps
  • Weather Map
  • Weather Widgets
  • user-avatar
    Login

    Hourly Weather Ondjiwa

    Today, 22 July, Monday

    Time Temperature Precipitation Wind Pressure Humidity
    00:00 +15°C° 0 mm 2 mps 668 mmHg 17%
    01:00 +14°C° 0 mm 2 mps 668 mmHg 19%
    02:00 +13°C° 0 mm 2 mps 668 mmHg 19%
    03:00 +11°C° 0 mm 3 mps 668 mmHg 20%
    04:00 +10°C° 0 mm 3 mps 668 mmHg 20%
    05:00 +10°C° 0 mm 3 mps 668 mmHg 21%
    06:00 +9°C° 0 mm 2 mps 669 mmHg 22%
    07:00 +9°C° 0 mm 2 mps 669 mmHg 22%
    08:00 +14°C° 0 mm 3 mps 670 mmHg 17%
    09:00 +19°C° 0 mm 3 mps 671 mmHg 13%
    10:00 +25°C° 0 mm 3 mps 672 mmHg 9%
    11:00 +27°C° 0 mm 3 mps 672 mmHg 8%
    12:00 +29°C° 0 mm 3 mps 671 mmHg 7%
    13:00 +30°C° 0 mm 4 mps 671 mmHg 6%
    14:00 +30°C° 0 mm 3 mps 670 mmHg 5%
    15:00 +31°C° 0 mm 3 mps 670 mmHg 5%
    16:00 +31°C° 0 mm 2 mps 669 mmHg 5%
    17:00 +27°C° 0 mm 2 mps 668 mmHg 6%
    18:00 +24°C° 0 mm 2 mps 668 mmHg 8%
    19:00 +20°C° 0 mm 1 mps 667 mmHg 9%
    20:00 +19°C° 0 mm 1 mps 667 mmHg 10%
    21:00 +18°C° 0 mm 1 mps 668 mmHg 11%
    22:00 +16°C° 0 mm 2 mps 668 mmHg 11%
    23:00 +15°C° 0 mm 2 mps 668 mmHg 12%

    Tomorrow, 23 July, Tuesday

    Time Temperature Precipitation Wind Pressure Humidity
    00:00 +14°C° 0 mm 2 mps 667 mmHg 12%
    01:00 +13°C° 0 mm 2 mps 667 mmHg 13%
    02:00 +12°C° 0 mm 2 mps 667 mmHg 14%
    03:00 +12°C° 0 mm 2 mps 667 mmHg 16%
    04:00 +10°C° 0 mm 2 mps 666 mmHg 17%
    05:00 +9°C° 0 mm 2 mps 667 mmHg 19%
    06:00 +9°C° 0 mm 2 mps 667 mmHg 20%
    07:00 +10°C° 0 mm 1 mps 668 mmHg 22%
    08:00 +15°C° 0 mm 2 mps 669 mmHg 18%
    09:00 +19°C° 0 mm 2 mps 670 mmHg 15%
    10:00 +25°C° 0 mm 3 mps 672 mmHg 12%
    11:00 +27°C° 0 mm 3 mps 671 mmHg 11%
    12:00 +29°C° 0 mm 3 mps 670 mmHg 10%
    13:00 +33°C° 0 mm 3 mps 670 mmHg 9%
    14:00 +32°C° 0 mm 2 mps 669 mmHg 9%
    15:00 +32°C° 0 mm 2 mps 669 mmHg 8%
    16:00 +32°C° 0 mm 1 mps 668 mmHg 8%
    17:00 +29°C° 0 mm 1 mps 668 mmHg 11%
    18:00 +25°C° 0 mm 1 mps 667 mmHg 13%
    19:00 +22°C° 0 mm 1 mps 667 mmHg 15%
    20:00 +20°C° 0 mm 2 mps 667 mmHg 17%
    21:00 +18°C° 0 mm 2 mps 667 mmHg 18%
    22:00 +17°C° 0 mm 2 mps 667 mmHg 19%
    23:00 +16°C° 0 mm 2 mps 667 mmHg 20%

    Day after tomorrow, 24 July, Wednesday

    Time Temperature Precipitation Wind Pressure Humidity
    00:00 +15°C° 0 mm 2 mps 667 mmHg 21%
    01:00 +15°C° 0 mm 2 mps 666 mmHg 22%
    02:00 +14°C° 0 mm 1 mps 666 mmHg 23%
    03:00 +12°C° 0 mm 1 mps 666 mmHg 24%
    04:00 +10°C° 0 mm 0 mps 666 mmHg 26%
    05:00 +12°C° 0 mm 1 mps 666 mmHg 26%
    06:00 +12°C° 0 mm 1 mps 667 mmHg 26%
    07:00 +12°C° 0 mm 1 mps 667 mmHg 26%
    08:00 +16°C° 0 mm 2 mps 668 mmHg 21%
    09:00 +20°C° 0 mm 3 mps 669 mmHg 16%
    10:00 +26°C° 0 mm 3 mps 670 mmHg 11%
    11:00 +28°C° 0 mm 3 mps 670 mmHg 11%
    12:00 +30°C° 0 mm 3 mps 669 mmHg 10%
    13:00 +33°C° 0 mm 3 mps 669 mmHg 9%
    14:00 +33°C° 0 mm 3 mps 669 mmHg 9%
    15:00 +32°C° 0 mm 2 mps 668 mmHg 9%
    16:00 +32°C° 0 mm 2 mps 668 mmHg 9%
    17:00 +29°C° 0 mm 2 mps 667 mmHg 11%
    18:00 +26°C° 0 mm 2 mps 667 mmHg 14%
    19:00 +23°C° 0 mm 1 mps 667 mmHg 16%
    20:00 +20°C° 0 mm 2 mps 667 mmHg 18%
    21:00 +19°C° 0 mm 2 mps 667 mmHg 19%
    22:00 +18°C° 0 mm 2 mps 667 mmHg 20%
    23:00 +17°C° 0 mm 2 mps 667 mmHg 21%

    25 July, Thursday

    Time Temperature Precipitation Wind Pressure Humidity
    00:00 +17°C° 0 mm 2 mps 667 mmHg 21%
    01:00 +16°C° 0 mm 2 mps 667 mmHg 22%
    02:00 +15°C° 0 mm 2 mps 667 mmHg 23%
    03:00 +14°C° 0 mm 2 mps 667 mmHg 25%
    04:00 +13°C° 0 mm 2 mps 667 mmHg 26%
    05:00 +13°C° 0 mm 2 mps 667 mmHg 27%
    06:00 +12°C° 0 mm 2 mps 668 mmHg 28%
    07:00 +12°C° 0 mm 1 mps 668 mmHg 29%
    08:00 +16°C° 0 mm 2 mps 669 mmHg 24%
    09:00 +21°C° 0 mm 3 mps 670 mmHg 18%
    10:00 +26°C° 0 mm 4 mps 671 mmHg 12%
    11:00 +28°C° 0 mm 4 mps 671 mmHg 11%
    12:00 +32°C° 0 mm 4 mps 671 mmHg 9%
    13:00 +34°C° 0 mm 4 mps 670 mmHg 8%
    14:00 +34°C° 0 mm 3 mps 670 mmHg 8%
    15:00 +34°C° 0 mm 3 mps 669 mmHg 8%
    16:00 +34°C° 0 mm 2 mps 669 mmHg 8%
    17:00 +29°C° 0 mm 2 mps 668 mmHg 10%
    18:00 +26°C° 0 mm 2 mps 668 mmHg 12%
    19:00 +23°C° 0 mm 2 mps 667 mmHg 15%
    20:00 +21°C° 0 mm 2 mps 668 mmHg 16%
    21:00 +19°C° 0 mm 2 mps 668 mmHg 17%
    22:00 +18°C° 0 mm 2 mps 668 mmHg 18%
    23:00 +17°C° 0 mm 2 mps 668 mmHg 19%

    26 July, Friday

    Time Temperature Precipitation Wind Pressure Humidity
    00:00 +17°C° 0 mm 2 mps 668 mmHg 19%
    01:00 +16°C° 0 mm 2 mps 667 mmHg 20%
    02:00 +15°C° 0 mm 2 mps 667 mmHg 21%
    03:00 +14°C° 0 mm 2 mps 667 mmHg 22%
    04:00 +13°C° 0 mm 2 mps 667 mmHg 22%
    05:00 +13°C° 0 mm 2 mps 668 mmHg 23%
    06:00 +12°C° 0 mm 2 mps 668 mmHg 24%
    07:00 +12°C° 0 mm 1 mps 669 mmHg 25%
    08:00 +17°C° 0 mm 2 mps 670 mmHg 20%
    09:00 +21°C° 0 mm 3 mps 671 mmHg 16%
    10:00 +27°C° 0 mm 4 mps 672 mmHg 11%
    11:00 +29°C° 0 mm 4 mps 671 mmHg 9%
    12:00 +33°C° 0 mm 4 mps 671 mmHg 8%
    13:00 +35°C° 0 mm 5 mps 670 mmHg 6%
    14:00 +35°C° 0 mm 4 mps 670 mmHg 6%
    15:00 +34°C° 0 mm 4 mps 669 mmHg 6%
    16:00 +34°C° 0 mm 4 mps 669 mmHg 6%
    17:00 +30°C° 0 mm 3 mps 668 mmHg 8%
    18:00 +26°C° 0 mm 2 mps 668 mmHg 10%
    19:00 +22°C° 0 mm 1 mps 667 mmHg 12%
    20:00 +20°C° 0 mm 2 mps 667 mmHg 13%
    21:00 +19°C° 0 mm 2 mps 667 mmHg 14%
    22:00 +18°C° 0 mm 2 mps 668 mmHg 15%
    23:00 +17°C° 0 mm 2 mps 668 mmHg 16%

    27 July, Saturday

    Time Temperature Precipitation Wind Pressure Humidity
    00:00 +17°C° 0 mm 2 mps 668 mmHg 16%
    01:00 +16°C° 0 mm 2 mps 667 mmHg 17%
    02:00 +14°C° 0 mm 3 mps 667 mmHg 18%
    03:00 +13°C° 0 mm 3 mps 667 mmHg 20%
    04:00 +12°C° 0 mm 3 mps 667 mmHg 21%
    05:00 +12°C° 0 mm 3 mps 668 mmHg 23%
    06:00 +13°C° 0 mm 2 mps 668 mmHg 24%
    07:00 +13°C° 0 mm 2 mps 668 mmHg 26%
    08:00 +17°C° 0 mm 3 mps 669 mmHg 21%
    09:00 +21°C° 0 mm 4 mps 670 mmHg 16%
    10:00 +27°C° 0 mm 4 mps 671 mmHg 11%
    11:00 +29°C° 0 mm 4 mps 671 mmHg 10%
    12:00 +32°C° 0 mm 4 mps 670 mmHg 8%
    13:00 +34°C° 0 mm 4 mps 670 mmHg 7%
    14:00 +34°C° 0 mm 3 mps 669 mmHg 6%
    15:00 +34°C° 0 mm 3 mps 669 mmHg 6%
    16:00 +34°C° 0 mm 3 mps 668 mmHg 6%
    17:00 +30°C° 0 mm 2 mps 668 mmHg 8%
    18:00 +27°C° 0 mm 2 mps 667 mmHg 10%
    19:00 +23°C° 0 mm 2 mps 667 mmHg 12%
    20:00 +21°C° 0 mm 2 mps 667 mmHg 13%
    21:00 +20°C° 0 mm 2 mps 667 mmHg 14%
    22:00 +18°C° 0 mm 2 mps 667 mmHg 15%
    23:00 +18°C° 0 mm 2 mps 667 mmHg 16%
    Show more